Regional Weather Roundup
Issued by NWS Sioux Falls, SD

Home | Current Version | Previous Version | Text Only | Print | Product List | Glossary Off
Versions: 1 2 3 4 5 6 7 8 9 10 11 12 13 14 15 16 17 18 19 20 21 22 23 24 25 26 27 28 29 30 31 32 33 34 35 36 37 38 39 40 41 42 43 44 45 46 47 48 49 50

000
ASUS43 KFSD 020410
RWRFSD

WEATHER ROUNDUP FOR SE SOUTH DAKOTA/SW MINNESOTA/NW IOWA
NATIONAL WEATHER SERVICE SIOUX FALLS SD
1100 PM CDT TUE SEP 01 2015

NOTE: "FAIR" INDICATES FEW OR NO CLOUDS BELOW 12,000 FEET WITH NO
SIGNIFICANT WEATHER AND OR OBSTRUCTIONS TO VISIBILITY.


SDZ038>040-050-052>070-020500-
SOUTHEAST SOUTH DAKOTA

CITY           SKY/WX    TMP DP  RH WIND       PRES   REMARKS
BROOKINGS      CLEAR    N/A N/A N/A E10       29.90R
CHAMBERLAIN    CLEAR     70  69  96 SE8       29.83R
HURON          CLEAR     70  68  93 SE7       29.83S
MADISON        FAIR      70  70 100 SE7       29.88S
MITCHELL       CLEAR     70  69  97 SE6       29.83F
SIOUX FALLS    PTCLDY    75  71  87 S7        29.87R
WINNER         FAIR      74  66  76 SE12      29.82S
YANKTON        CLEAR     77  70  78 S9        29.84S
$$

MNZ071-072-080-081-089-090-097-098-020500-
SOUTHWEST MINNESOTA

CITY           SKY/WX    TMP DP  RH WIND       PRES   REMARKS
FAIRMONT       MOCLDY    73  66  78 SE9       29.91F
JACKSON        MOCLDY    77  72  83 SE12      29.92S
LUVERNE        PTCLDY    75  72  88 S6        29.89R
MARSHALL       CLOUDY    66  59  77 S21G26    29.94S THUNDER
MONTEVIDEO     CLOUDY    73  73 100 S7        29.91R
PIPESTONE      CLOUDY    70  64  83 E9        29.91R
REDWOOD FALLS  LGT RAIN  76  71  85 SE7       29.90R
TRACY          CLOUDY    68  64  88 W7G17     29.95R
WINDOM         CLOUDY    75  70  83 CALM      29.93R
WORTHINGTON    CLOUDY    73  70  88 S8        29.90S
$$

IAZ001>003-012>014-020>022-031-032-NEZ013-014-SDZ071-020500-
NORTHWEST IOWA

CITY           SKY/WX    TMP DP  RH WIND       PRES   REMARKS
CHEROKEE       PTCLDY    75  72  89 S10       29.91R
DENISON        MOCLDY    75  70  83 S12       29.92S
ESTHERVILLE    MOCLDY    74  72  93 S10       29.92S
LE MARS        PTCLDY    77  72  83 S9        29.89S
ORANGE CITY    PTCLDY    75  72  88 S9        29.89S
SHELDON        CLOUDY    75  72  88 S10G18    29.88S
SIOUX CITY     CLEAR     76  68  76 SE12      29.88S
SPENCER        CLOUDY    77  70  79 S14       29.91S
STORM LAKE     PTCLDY    73  70  88 S10G16    29.94S
$$

ABBREVIATIONS USED IN REMARKS
   TC - TEMPERATURE IN CELSIUS
  WCI - WIND CHILL INDEX
   HX - HEAT INDEX
  VSB - VISIBILITY




USA.gov is the U.S. government's official web portal to all federal, state and local government web resources and services.